Home   Weather   Langenthal   Past weeks

Flag for Switzerland Past Weather in Langenthal, Bern, Switzerland — Yesterday and Last 2 Weeks

Now
57 °F

Cool.


Feels Like: 57 °F
Forecast: 51 / 66 °F
Wind: 1 mph from Southwest

Location: Wynau

Current Time: Sep 26, 2016 at 10:46:54 PM

Latest Report: Sep 26, 2016 at 10:00 PM


Visibility: N/A

Pressure: 30.18 "Hg

Humidity: 92%

Dew Point: 55 °F

Location of LangenthalLocation

Past Weather in Langenthal — Graph

°F

Langenthal Temperature Yesterday

Maximum temperature yesterday: 73 °F (at 4:00 PM)
Minimum temperature yesterday: 48 °F (at 4:00 AM)
Average temperature yesterday: 58 °F

High & Low Weather Summary for the Past Weeks

 TemperatureHumidityPressure
High83 °F (Sep 14, 4:00 PM)100% (Sep 12, 6:00 AM)30.34 "Hg (Sep 12, 6:00 AM)
Low44 °F (Sep 22, 6:00 AM)44% (Sep 14, 3:00 PM)29.78 "Hg (Sep 14, 6:00 PM)
Average59 °F85%30.06 "Hg
* Reported Sep 11 9:00 PM — Sep 26 9:00 PM, Langenthal, Weather by CustomWeather, © 2016

Note: Actual official high and low records may vary slightly from our data, if they occured in-between our weather recording intervals... More about our weather records

Advertising

Langenthal Weather History for the Previous 24 Hours

Scroll right to see more
 ConditionsComfort  
Time TempWeatherWind HumidityBarometerVisibility
9:00 PM
Mon, Sep 26
59 °FCool.2 mph89%30.17 "HgN/A
8:00 PM59 °FCool.2 mph89%30.16 "HgN/A
7:00 PM60 °FCool.1 mph88%30.14 "HgN/A
6:00 PM66 °FMild.3 mph68%30.10 "HgN/A
5:00 PM69 °FMild.5 mph64%30.10 "HgN/A
4:00 PM69 °FMild.6 mph61%30.09 "HgN/A
3:00 PM68 °FMild.7 mph65%30.10 "HgN/A
2:00 PM69 °FMild.9 mph65%30.11 "HgN/A
1:00 PM68 °FMild.9 mph66%30.14 "HgN/A
12:00 PM65 °FMild.5 mph71%30.15 "HgN/A
11:00 AM59 °FCool.No wind88%30.18 "HgN/A
10:00 AM55 °FCool.1 mph94%30.19 "HgN/A
9:00 AM53 °FCool.1 mph97%30.19 "HgN/A
8:00 AM51 °FCool.1 mph98%30.20 "HgN/A
7:00 AM50 °FCool.1 mph100%30.19 "HgN/A
6:00 AM48 °FCool.No wind100%30.20 "HgN/A
5:00 AM51 °FCool.1 mph100%30.19 "HgN/A
4:00 AM51 °FCool.No wind98%30.19 "HgN/A
3:00 AM52 °FCool.1 mph98%30.20 "HgN/A
2:00 AM52 °FCool.2 mph99%30.19 "HgN/A
1:00 AM54 °FCool.1 mph96%30.18 "HgN/A
12:00 AM55 °FCool.1 mph94%30.18 "HgN/A
11:00 PM
Sun, Sep 25
55 °FCool.No wind95%30.18 "HgN/A
10:00 PM56 °FCool.1 mph95%30.16 "HgN/A
Weather by CustomWeather, © 2016

See weather overviewHow to use our weather pages